Location: Bílinka
(49.3579°N, 14.3767°E)
Time: 10:55:16
(UTC+00:00)

Cosmos 1697 Rocket - Visible Passes

Search period start: 28 September 2023 00:00
Search period end: 08 October 2023 00:00
Orbit: 832 x 843 km, 71.0° (Epoch: 27 September)

Date Brightness Start Highest point End Pass type
(mag) Time Alt. Az. Time Alt. Az. Time Alt. Az.
28 Sep 5.3 17:43:27 10° NW 17:45:03 11° NNW 17:46:39 10° N visible
28 Sep 5.1 21:15:31 10° N 21:17:56 15° NNE 21:17:56 15° NNE visible
28 Sep 5.2 22:58:34 10° NNW 22:59:38 16° NNW 22:59:38 16° NNW visible
29 Sep 5.3 17:26:48 10° NW 17:28:39 11° NNW 17:30:30 10° N visible
29 Sep 5.1 20:59:17 10° N 21:01:43 15° NNE 21:01:43 15° NNE visible
29 Sep 5.2 22:42:18 10° NNW 22:43:24 16° NNW 22:43:24 16° NNW visible
30 Sep 5.0 20:43:04 10° N 20:45:30 14° NNE 20:45:30 14° NNE visible
30 Sep 5.2 22:26:00 10° NNW 22:27:12 16° NNW 22:27:12 16° NNW visible
01 Oct 5.0 20:26:52 10° N 20:29:18 14° NNE 20:29:18 14° NNE visible
01 Oct 5.2 22:09:44 10° NNW 22:11:01 17° NNW 22:11:01 17° NNW visible
02 Oct 5.0 20:10:39 10° N 20:13:08 13° NNE 20:13:08 13° NNE visible
02 Oct 5.1 21:53:27 10° NNW 21:54:51 17° NNW 21:54:51 17° NNW visible
03 Oct 5.0 19:54:26 10° N 19:56:54 13° NNE 19:57:00 13° NNE visible
03 Oct 5.1 21:37:10 10° NNW 21:38:42 18° N 21:38:42 18° N visible
04 Oct 5.0 19:38:16 10° N 19:40:31 12° NNE 19:40:52 12° NNE visible
04 Oct 5.0 21:20:55 10° NNW 21:22:35 19° N 21:22:35 19° N visible
05 Oct 4.9 19:22:05 10° N 19:24:07 12° NNE 19:24:45 12° NNE visible
05 Oct 4.9 21:04:38 10° NNW 21:06:28 19° N 21:06:28 19° N visible
06 Oct 4.9 19:05:55 10° N 19:07:44 11° NNE 19:08:40 11° NE visible
06 Oct 4.8 20:48:22 10° NNW 20:50:22 20° N 20:50:22 20° N visible
07 Oct 4.9 18:49:47 10° N 18:51:20 11° NNE 18:52:35 10° NE visible
07 Oct 4.7 20:32:06 10° NNW 20:34:18 21° N 20:34:18 21° N visible
07 Oct 5.6 22:15:57 10° NW 22:16:00 10° NW 22:16:00 10° NW visible
